SCP
0 0 -0 0 0 0 0 0 0 0 0 0 0 0 0 0 0 0 1 1 0 0 0 0 0 0 0 0 0 -0 0 0 0 0 0 0 0 0 -0 0 0 0 -0
0 0 0 0 0 0 0 0 0 0 0 0 0 0 0 0 0 0 1 1 1 0 0 0 0 0 0 0 0 0 0 0 0 0 0 0 0 0 0 0 0 0 0
-0 -0 0 0 0 0 0 0 0 1 0 0 0 0 0 0 0 0 0 1 1 0 0 0 0 0 0 0 0 0 0 0 0 0 0 0 0 0 0 0 0 0 0
-0 -0 -0 0 0 0 0 0 0 0 1 0 0 0 0 0 0 0 0 1 0 0 0 0 0 0 0 0 0 0 0 0 0 0 0 0 0 0 0 0 0 -0 0
0 -0 0 0 0 0 0 0 0 0 0 0 1 0 0 0 0 0 0 1 1 0 0 0 0 0 0 0 0 0 0 0 0 0 0 0 0 0 0 0 0 0 0
0 -0 0 0 0 0 0 0 0 0 0 0 0 1 0 0 0 1 1 1 1 0 0 0 1 0 0 0 0 0 0 0 0 0 0 0 0 0 0 0 0 0 0
0 0 -0 0 0 0 0 0 0 0 0 0 0 0 1 0 1 0 0 0 1 1 1 0 0 0 0 0 0 0 0 0 0 0 0 0 0 0 0 0 0 0 0
0 0 0 0 0 0 0 0 0 0 0 0 0 0 0 0 0 0 0 0 0 0 0 0 0 0 0 0 0 0 0 0 0 0 0 0 0 0 0 0 0 0 0
0 0 0 0 0 0 0 0 0 0 0 0 0 0 0 0 0 0 0 0 0 0 0 0 0 0 0 0 0 0 0 0 0 0 0 0 0 0 0 0 0 0 0
0 0 0 0 0 0 0 0 0 0 0 0 0 0 0 0 0 0 0 0 0 0 0 0 0 0 0 0 0 0 0 0 0 0 0 0 0 0 0 0 0 0 0
0 0 0 0 0 0 0 0 0 0 0 0 0 0 0 0 0 0 0 0 0 0 0 0 0 0 0 0 0 0 0 0 0 0 0 0 0 0 0 0 0 0 0
0 0 0 0 0 0 0 0 0 0 0 0 0 0 0 0 0 0 0 0 0 0 0 0 0 0 0 0 0 0 0 0 0 0 0 0 0 0 0 0 0 0 0
0 0 0 0 0 0 0 0 0 0 0 0 0 0 0 0 0 0 0 0 0 0 0 0 0 0 0 0 0 0 0 0 0 0 0 0 0 0 0 0 0 0 0
0 0 0 0 0 0 0 0 0 0 0 0 0 0 0 0 0 0 0 0 0 0 0 0 1 0 0 0 0 0 0 0 0 0 0 0 0 0 0 0 0 0 0
0 0 0 0 -0 0 0 0 0 0 0 0 0 0 0 0 0 0 0 0 0 0 0 0 0 0 0 0 0 0 0 0 0 0 0 0 0 0 0 0 0 0 0
0 0 0 0 0 0 0 0 0 0 0 0 0 0 0 0 0 0 0 0 0 0 0 0 0 0 0 0 0 0 0 0 0 0 0 0 0 0 0 0 0 0 0
0 0 0 0 0 0 0 0 0 0 0 0 0 0 0 0 0 0 0 0 0 0 0 0 0 0 0 0 0 0 0 0 0 0 0 0 0 0 0 0 0 0 0
0 0 0 0 0 0 0 0 0 0 0 0 0 0 0 0 0 0 0 0 0 0 0 0 0 0 0 0 0 0 0 0 0 0 0 0 0 0 0 0 0 0 0
0 0 0 0 0 0 0 0 0 0 0 0 0 0 0 0 0 0 0 0 0 0 0 0 0 0 0 0 0 0 0 0 0 0 0 0 0 0 0 0 0 0 0
0 0 0 0 0 0 0 0 0 0 0 0 0 0 0 0 0 0 0 0 0 0 0 0 0 0 0 0 0 0 0 0 0 0 0 0 0 0 0 0 0 0 0
0 0 0 0 0 0 0 0 0 0 0 0 0 0 0 0 0 0 0 0 0 0 0 0 0 0 0 0 0 0 0 0 0 0 0 0 0 0 0 0 0 0 0
0 0 0 0 0 0 0 0 0 0 0 0 0 0 0 0 0 0 0 0 0 0 0 0 0 0 0 0 0 0 0 0 0 0 0 0 0 0 0 0 0 0 0
0 0 0 0 0 0 0 0 0 0 0 0 0 0 0 0 0 0 0 0 0 0 0 0 0 0 0 0 0 0 0 0 0 0 0 0 0 0 0 0 0 0 0
0 0 0 0 0 0 0 0 0 0 0 0 0 0 0 0 0 0 0 0 0 0 0 0 0 0 0 0 0 0 0 0 0 0 0 0 0 0 0 0 0 0 0
0 0 0 0 0 0 0 0 0 0 0 0 0 0 0 0 0 0 0 0 0 0 0 0 0 0 0 0 0 0 0 0 0 0 0 0 0 0 0 0 0 0 0
0 0 0 0 0 0 0 0 0 0 0 0 0 0 0 0 0 0 0 0 0 0 0 -0 0 0 0 0 0 0 0 0 0 0 0 0 0 0 0 0 0 0 0
Wind_Speed_500mb
36 34 30 26 14 8 11 10 8 8 11 13 13 12 12 14 21 33 38 42 41 38 35 38 37 33 32 34 35 32 35 31 24 18 16 10 9 11 16 24 30 34 27
23 30 29 24 15 14 13 14 11 10 13 17 17 17 15 14 22 29 34 37 41 39 39 42 37 36 35 33 32 31 31 28 24 20 13 7 9 13 20 26 30 33 28
28 32 27 24 15 12 14 17 15 13 12 17 20 21 18 17 23 29 31 33 39 40 42 41 39 36 35 34 35 36 32 29 26 22 16 12 12 17 25 28 28 31 29
27 33 28 23 22 14 15 19 17 19 17 18 21 23 24 21 25 30 33 35 36 39 41 40 39 35 33 34 35 36 34 32 30 25 19 15 13 19 27 29 25 29 31
20 30 31 26 22 20 17 19 26 20 23 22 24 28 28 29 29 33 36 40 39 40 41 42 41 35 29 31 35 36 36 34 31 25 19 18 14 15 26 28 21 28 32
21 32 38 34 29 24 19 20 23 26 27 28 29 30 33 35 34 34 39 44 45 44 43 43 43 36 32 29 34 36 36 35 31 25 22 15 14 10 23 27 26 31 38
27 36 42 41 36 31 27 22 21 27 29 31 35 33 37 40 40 39 42 46 51 51 50 49 44 39 32 29 30 32 33 33 30 29 31 25 19 24 28 32 24 30 46
24 35 40 39 37 32 31 31 27 24 29 37 40 38 40 45 47 47 46 47 52 55 52 50 46 43 34 30 29 30 31 32 32 36 33 26 28 29 31 38 38 45 45
38 41 42 47 42 38 35 35 35 32 30 30 35 39 44 48 52 54 53 51 51 56 55 54 50 45 38 32 29 29 31 31 34 43 35 31 32 33 37 43 48 43 37
44 46 48 52 49 49 40 38 37 38 37 33 32 38 41 48 49 56 60 59 55 55 57 56 53 49 43 34 30 31 32 34 43 44 33 30 33 30 44 48 44 36 29
49 42 42 47 47 47 48 40 40 39 39 38 33 35 35 44 50 54 57 62 62 59 61 60 58 55 49 39 33 33 36 40 52 46 38 37 29 33 42 44 36 31 27
48 49 49 50 50 50 48 49 42 39 42 40 37 34 37 36 47 58 59 61 63 65 65 62 61 66 63 55 41 38 40 44 58 38 40 34 36 35 45 41 34 30 26
45 49 49 51 52 52 50 50 52 46 40 41 36 33 34 35 42 48 60 62 64 67 70 65 62 68 76 68 49 43 42 55 55 41 37 35 35 39 43 37 32 29 30
46 52 56 57 55 54 57 51 49 54 49 42 38 34 32 31 32 40 46 55 61 67 67 67 66 71 79 79 48 45 47 56 58 47 38 39 37 35 36 36 32 31 32
50 53 62 64 65 52 56 59 51 48 54 51 47 39 35 32 27 32 33 33 67 59 60 66 65 67 77 59 60 41 48 56 62 52 44 40 41 34 33 35 31 31 34
51 57 61 63 64 61 52 56 59 51 50 54 56 48 42 40 31 25 31 38 32 55 57 58 56 65 71 55 46 49 37 49 54 58 47 43 38 34 30 34 29 26 28
57 66 63 57 58 62 54 52 56 57 52 53 55 58 50 46 45 33 26 27 25 42 47 55 54 51 36 42 50 46 43 38 48 55 52 47 48 43 39 39 33 29 26
63 60 58 52 53 58 54 48 52 56 52 54 51 56 58 50 47 47 32 28 30 31 33 48 35 52 47 36 34 44 51 39 43 52 52 52 53 47 46 46 40 36 36
58 58 56 51 47 54 51 43 45 52 49 45 49 54 58 53 46 47 46 34 30 29 32 30 42 44 54 47 45 53 49 50 47 48 48 53 54 47 51 52 48 44 40
52 54 56 50 45 50 46 40 42 45 45 39 47 50 49 51 52 50 48 34 24 38 36 40 46 48 38 47 62 62 55 52 57 54 46 45 30 34 40 56 53 52 49
50 51 51 49 44 44 44 36 36 42 46 37 42 45 46 45 47 47 59 50 38 33 39 35 39 42 45 54 63 60 46 55 61 71 69 51 43 36 35 49 46 45 45
50 52 47 43 42 42 39 36 35 46 48 37 41 42 48 37 40 51 45 53 51 34 29 35 31 38 40 49 73 65 46 50 68 66 72 74 73 77 77 67 55 58 56
49 50 43 42 42 40 39 36 39 43 45 35 26 31 41 40 46 49 48 58 59 49 40 38 38 44 45 59 66 48 28 19 52 59 65 67 73 55 59 62 63 62 52
47 48 42 41 41 39 37 37 38 41 42 32 29 20 26 44 50 53 54 49 60 71 53 48 48 45 45 58 68 67 40 38 39 28 56 54 55 58 54 63 63 62 59
47 46 45 43 41 41 39 36 37 40 40 35 37 23 22 45 44 45 48 44 41 62 79 65 54 52 47 55 68 75 58 53 46 40 41 57 59 60 58 58 63 65 69
40 43 42 39 39 41 38 35 33 37 37 33 37 36 21 39 37 38 42 45 42 49 57 60 51 56 59 51 58 68 74 62 57 48 35 55 61 59 63 61 61 64 70
Wind_Direction_500mb
355 357 8 4 5 340 312 295 272 280 270 262 246 241 242 232 198 189 194 195 201 203 200 192 185 184 184 183 182 181 178 180 176 184 189 198 211 196 178 169 167 166 158
337 345 9 6 7 341 304 304 280 265 272 262 258 246 240 226 205 191 189 197 201 200 194 192 186 179 181 185 184 182 183 190 192 194 199 226 226 196 179 177 168 165 166
346 338 353 3 354 329 306 306 285 261 256 264 255 247 239 227 211 196 194 190 188 193 191 192 188 188 187 189 192 194 200 206 207 211 217 235 229 195 180 183 173 168 165
351 332 331 346 347 324 310 285 293 269 254 252 252 243 238 227 217 207 195 193 191 190 189 188 188 188 192 199 202 206 212 212 213 218 230 235 213 194 185 185 178 178 174
354 325 320 324 335 331 312 293 277 284 262 248 241 243 236 232 219 213 205 200 198 195 193 191 194 195 198 207 212 214 215 215 216 221 224 211 169 190 187 183 176 173 170
328 316 316 327 324 324 320 304 291 280 277 261 247 233 234 232 225 216 213 210 206 204 203 203 205 210 209 217 219 219 220 220 218 205 181 193 193 221 202 187 194 192 190
318 306 306 315 315 316 315 307 288 285 271 263 264 236 232 230 228 224 220 218 214 216 216 220 217 212 217 218 218 221 219 216 208 189 179 186 183 226 205 193 192 178 168
307 301 306 305 305 306 307 309 301 283 285 272 257 258 241 234 226 225 225 222 220 220 222 220 218 216 222 215 218 218 214 206 194 182 183 185 212 227 203 188 174 160 166
302 302 306 304 301 296 297 296 298 296 281 280 265 262 254 234 232 228 225 226 224 224 224 223 224 217 219 217 218 212 205 197 183 176 188 194 221 213 194 184 179 176 179
300 302 297 296 292 294 291 286 285 289 293 285 275 261 258 252 232 231 230 225 224 226 223 226 227 222 221 217 218 210 202 190 180 183 194 191 220 216 185 178 184 190 197
308 308 305 303 302 295 291 289 277 276 282 287 287 272 259 252 245 234 233 232 227 226 228 224 222 223 224 219 216 209 200 191 184 191 196 195 223 215 186 186 191 199 206
308 311 308 307 308 303 296 288 283 272 267 276 281 280 261 252 243 239 235 234 232 229 229 228 227 219 216 211 208 203 201 190 183 194 196 199 215 210 185 192 198 202 207
309 308 310 309 309 309 304 295 285 279 266 258 265 275 273 251 245 241 238 236 235 231 228 229 229 225 216 205 199 202 194 189 189 199 196 197 215 211 197 195 197 207 216
311 310 310 308 304 301 301 296 289 280 274 260 253 255 266 259 252 243 244 234 234 233 233 232 231 229 221 224 198 204 193 192 195 198 197 198 214 213 202 195 211 226 237
308 313 313 311 309 302 292 291 289 281 272 266 255 245 248 257 244 253 244 246 233 231 229 227 227 231 225 215 193 197 205 195 199 202 208 199 206 213 219 223 225 231 228
307 314 313 307 307 303 297 289 287 284 275 264 257 250 240 243 254 237 241 247 225 229 229 226 222 223 226 187 182 187 203 206 205 209 206 211 218 227 226 215 212 217 218
303 308 308 305 301 298 297 288 281 278 272 266 258 253 244 236 244 248 228 235 248 208 213 210 187 175 184 179 180 183 188 208 211 214 215 215 221 220 222 217 211 220 225
302 307 307 304 300 298 296 285 277 273 270 265 257 253 246 237 239 242 235 224 221 214 202 197 187 196 195 181 184 194 193 202 221 217 220 221 223 218 220 221 225 223 223
306 309 309 307 300 298 297 291 276 273 272 260 257 249 245 237 235 237 235 220 215 218 201 208 194 169 172 178 185 182 186 210 231 227 230 230 226 219 220 221 229 233 233
310 311 310 307 302 298 299 295 285 282 273 260 254 247 240 232 236 231 225 216 212 215 199 205 219 205 200 191 192 188 192 205 216 224 227 235 225 222 220 230 231 237 239
311 313 312 308 309 303 300 299 290 290 276 258 246 245 238 230 229 233 232 234 213 224 210 207 209 218 209 208 196 201 209 206 216 216 218 226 231 234 235 242 227 239 240
316 317 314 311 309 304 306 298 283 279 277 270 244 240 228 225 234 229 228 230 231 212 211 217 207 215 208 217 206 202 190 200 212 219 222 223 225 235 232 231 231 235 232
319 324 321 317 311 307 302 300 274 273 279 280 253 248 222 217 216 222 221 222 230 216 218 223 211 224 206 226 229 195 178 191 211 201 218 229 230 219 219 228 235 231 229
322 320 318 317 315 308 303 298 289 278 273 269 242 245 220 214 215 219 224 220 216 229 226 226 219 220 224 222 224 221 208 203 189 199 216 214 215 229 219 234 216 222 227
315 313 312 313 311 312 302 295 288 276 266 259 245 261 200 208 212 220 227 229 221 217 220 234 227 221 222 234 223 228 226 202 210 212 207 217 217 221 227 222 215 210 207
316 319 316 311 311 312 303 294 281 273 267 257 251 251 218 216 226 223 230 228 223 220 226 229 233 230 227 228 235 230 225 219 215 215 212 210 214 218 216 210 208 205 206
Wind_Speed_850mb
36 34 30 26 14 8 11 10 8 8 11 13 13 12 12 14 21 33 38 42 41 38 35 38 37 33 32 34 35 32 35 31 24 18 16 10 9 11 16 24 30 34 27
23 30 29 24 15 14 13 14 11 10 13 17 17 17 15 14 22 29 34 37 41 39 39 42 37 36 35 33 32 31 31 28 24 20 13 7 9 13 20 26 30 33 28
28 32 27 24 15 12 14 17 15 13 12 17 20 21 18 17 23 29 31 33 39 40 42 41 39 36 35 34 35 36 32 29 26 22 16 12 12 17 25 28 28 31 29
27 33 28 23 22 14 15 19 17 19 17 18 21 23 24 21 25 30 33 35 36 39 41 40 39 35 33 34 35 36 34 32 30 25 19 15 13 19 27 29 25 29 31
20 30 31 26 22 20 17 19 26 20 23 22 24 28 28 29 29 33 36 40 39 40 41 42 41 35 29 31 35 36 36 34 31 25 19 18 14 15 26 28 21 28 32
21 32 38 34 29 24 19 20 23 26 27 28 29 30 33 35 34 34 39 44 45 44 43 43 43 36 32 29 34 36 36 35 31 25 22 15 14 10 23 27 26 31 38
27 36 42 41 36 31 27 22 21 27 29 31 35 33 37 40 40 39 42 46 51 51 50 49 44 39 32 29 30 32 33 33 30 29 31 25 19 24 28 32 24 30 46
24 35 40 39 37 32 31 31 27 24 29 37 40 38 40 45 47 47 46 47 52 55 52 50 46 43 34 30 29 30 31 32 32 36 33 26 28 29 31 38 38 45 45
38 41 42 47 42 38 35 35 35 32 30 30 35 39 44 48 52 54 53 51 51 56 55 54 50 45 38 32 29 29 31 31 34 43 35 31 32 33 37 43 48 43 37
44 46 48 52 49 49 40 38 37 38 37 33 32 38 41 48 49 56 60 59 55 55 57 56 53 49 43 34 30 31 32 34 43 44 33 30 33 30 44 48 44 36 29
49 42 42 47 47 47 48 40 40 39 39 38 33 35 35 44 50 54 57 62 62 59 61 60 58 55 49 39 33 33 36 40 52 46 38 37 29 33 42 44 36 31 27
48 49 49 50 50 50 48 49 42 39 42 40 37 34 37 36 47 58 59 61 63 65 65 62 61 66 63 55 41 38 40 44 58 38 40 34 36 35 45 41 34 30 26
45 49 49 51 52 52 50 50 52 46 40 41 36 33 34 35 42 48 60 62 64 67 70 65 62 68 76 68 49 43 42 55 55 41 37 35 35 39 43 37 32 29 30
46 52 56 57 55 54 57 51 49 54 49 42 38 34 32 31 32 40 46 55 61 67 67 67 66 71 79 79 48 45 47 56 58 47 38 39 37 35 36 36 32 31 32
50 53 62 64 65 52 56 59 51 48 54 51 47 39 35 32 27 32 33 33 67 59 60 66 65 67 77 59 60 41 48 56 62 52 44 40 41 34 33 35 31 31 34
51 57 61 63 64 61 52 56 59 51 50 54 56 48 42 40 31 25 31 38 32 55 57 58 56 65 71 55 46 49 37 49 54 58 47 43 38 34 30 34 29 26 28
57 66 63 57 58 62 54 52 56 57 52 53 55 58 50 46 45 33 26 27 25 42 47 55 54 51 36 42 50 46 43 38 48 55 52 47 48 43 39 39 33 29 26
63 60 58 52 53 58 54 48 52 56 52 54 51 56 58 50 47 47 32 28 30 31 33 48 35 52 47 36 34 44 51 39 43 52 52 52 53 47 46 46 40 36 36
58 58 56 51 47 54 51 43 45 52 49 45 49 54 58 53 46 47 46 34 30 29 32 30 42 44 54 47 45 53 49 50 47 48 48 53 54 47 51 52 48 44 40
52 54 56 50 45 50 46 40 42 45 45 39 47 50 49 51 52 50 48 34 24 38 36 40 46 48 38 47 62 62 55 52 57 54 46 45 30 34 40 56 53 52 49
50 51 51 49 44 44 44 36 36 42 46 37 42 45 46 45 47 47 59 50 38 33 39 35 39 42 45 54 63 60 46 55 61 71 69 51 43 36 35 49 46 45 45
50 52 47 43 42 42 39 36 35 46 48 37 41 42 48 37 40 51 45 53 51 34 29 35 31 38 40 49 73 65 46 50 68 66 72 74 73 77 77 67 55 58 56
49 50 43 42 42 40 39 36 39 43 45 35 26 31 41 40 46 49 48 58 59 49 40 38 38 44 45 59 66 48 28 19 52 59 65 67 73 55 59 62 63 62 52
47 48 42 41 41 39 37 37 38 41 42 32 29 20 26 44 50 53 54 49 60 71 53 48 48 45 45 58 68 67 40 38 39 28 56 54 55 58 54 63 63 62 59
47 46 45 43 41 41 39 36 37 40 40 35 37 23 22 45 44 45 48 44 41 62 79 65 54 52 47 55 68 75 58 53 46 40 41 57 59 60 58 58 63 65 69
40 43 42 39 39 41 38 35 33 37 37 33 37 36 21 39 37 38 42 45 42 49 57 60 51 56 59 51 58 68 74 62 57 48 35 55 61 59 63 61 61 64 70
Wind_Direction_850mb
355 357 8 4 5 340 312 295 272 280 270 262 246 241 242 232 198 189 194 195 201 203 200 192 185 184 184 183 182 181 178 180 176 184 189 198 211 196 178 169 167 166 158
337 345 9 6 7 341 304 304 280 265 272 262 258 246 240 226 205 191 189 197 201 200 194 192 186 179 181 185 184 182 183 190 192 194 199 226 226 196 179 177 168 165 166
346 338 353 3 354 329 306 306 285 261 256 264 255 247 239 227 211 196 194 190 188 193 191 192 188 188 187 189 192 194 200 206 207 211 217 235 229 195 180 183 173 168 165
351 332 331 346 347 324 310 285 293 269 254 252 252 243 238 227 217 207 195 193 191 190 189 188 188 188 192 199 202 206 212 212 213 218 230 235 213 194 185 185 178 178 174
354 325 320 324 335 331 312 293 277 284 262 248 241 243 236 232 219 213 205 200 198 195 193 191 194 195 198 207 212 214 215 215 216 221 224 211 169 190 187 183 176 173 170
328 316 316 327 324 324 320 304 291 280 277 261 247 233 234 232 225 216 213 210 206 204 203 203 205 210 209 217 219 219 220 220 218 205 181 193 193 221 202 187 194 192 190
318 306 306 315 315 316 315 307 288 285 271 263 264 236 232 230 228 224 220 218 214 216 216 220 217 212 217 218 218 221 219 216 208 189 179 186 183 226 205 193 192 178 168
307 301 306 305 305 306 307 309 301 283 285 272 257 258 241 234 226 225 225 222 220 220 222 220 218 216 222 215 218 218 214 206 194 182 183 185 212 227 203 188 174 160 166
302 302 306 304 301 296 297 296 298 296 281 280 265 262 254 234 232 228 225 226 224 224 224 223 224 217 219 217 218 212 205 197 183 176 188 194 221 213 194 184 179 176 179
300 302 297 296 292 294 291 286 285 289 293 285 275 261 258 252 232 231 230 225 224 226 223 226 227 222 221 217 218 210 202 190 180 183 194 191 220 216 185 178 184 190 197
308 308 305 303 302 295 291 289 277 276 282 287 287 272 259 252 245 234 233 232 227 226 228 224 222 223 224 219 216 209 200 191 184 191 196 195 223 215 186 186 191 199 206
308 311 308 307 308 303 296 288 283 272 267 276 281 280 261 252 243 239 235 234 232 229 229 228 227 219 216 211 208 203 201 190 183 194 196 199 215 210 185 192 198 202 207
309 308 310 309 309 309 304 295 285 279 266 258 265 275 273 251 245 241 238 236 235 231 228 229 229 225 216 205 199 202 194 189 189 199 196 197 215 211 197 195 197 207 216
311 310 310 308 304 301 301 296 289 280 274 260 253 255 266 259 252 243 244 234 234 233 233 232 231 229 221 224 198 204 193 192 195 198 197 198 214 213 202 195 211 226 237
308 313 313 311 309 302 292 291 289 281 272 266 255 245 248 257 244 253 244 246 233 231 229 227 227 231 225 215 193 197 205 195 199 202 208 199 206 213 219 223 225 231 228
307 314 313 307 307 303 297 289 287 284 275 264 257 250 240 243 254 237 241 247 225 229 229 226 222 223 226 187 182 187 203 206 205 209 206 211 218 227 226 215 212 217 218
303 308 308 305 301 298 297 288 281 278 272 266 258 253 244 236 244 248 228 235 248 208 213 210 187 175 184 179 180 183 188 208 211 214 215 215 221 220 222 217 211 220 225
302 307 307 304 300 298 296 285 277 273 270 265 257 253 246 237 239 242 235 224 221 214 202 197 187 196 195 181 184 194 193 202 221 217 220 221 223 218 220 221 225 223 223
306 309 309 307 300 298 297 291 276 273 272 260 257 249 245 237 235 237 235 220 215 218 201 208 194 169 172 178 185 182 186 210 231 227 230 230 226 219 220 221 229 233 233
310 311 310 307 302 298 299 295 285 282 273 260 254 247 240 232 236 231 225 216 212 215 199 205 219 205 200 191 192 188 192 205 216 224 227 235 225 222 220 230 231 237 239
311 313 312 308 309 303 300 299 290 290 276 258 246 245 238 230 229 233 232 234 213 224 210 207 209 218 209 208 196 201 209 206 216 216 218 226 231 234 235 242 227 239 240
316 317 314 311 309 304 306 298 283 279 277 270 244 240 228 225 234 229 228 230 231 212 211 217 207 215 208 217 206 202 190 200 212 219 222 223 225 235 232 231 231 235 232
319 324 321 317 311 307 302 300 274 273 279 280 253 248 222 217 216 222 221 222 230 216 218 223 211 224 206 226 229 195 178 191 211 201 218 229 230 219 219 228 235 231 229
322 320 318 317 315 308 303 298 289 278 273 269 242 245 220 214 215 219 224 220 216 229 226 226 219 220 224 222 224 221 208 203 189 199 216 214 215 229 219 234 216 222 227
315 313 312 313 311 312 302 295 288 276 266 259 245 261 200 208 212 220 227 229 221 217 220 234 227 221 222 234 223 228 226 202 210 212 207 217 217 221 227 222 215 210 207
316 319 316 311 311 312 303 294 281 273 267 257 251 251 218 216 226 223 230 228 223 220 226 229 233 230 227 228 235 230 225 219 215 215 212 210 214 218 216 210 208 205 206